SAS14M ESMS-EETN

Flight info

Callsign SAS14M
Flight time N/A
Altitude 37000
Route EKRAL1K EKRAL DCT TESPO DCT EVONA M611 LOGNA DCT SULUN SULUN1L
Aircraft A319/M-SDE3FGHIRWY/LB1

Departure

Time 2026-04-21 17:34
Airport Malmö Sturup Airport (ESMS)

Arrival

Time N/A
Airport Lennart Meri Tallinn Airport (EETN)
Time Latitude Longitude Altitude Speed Heading
2026-04-21 17:04 55.54016 13.36877 240 ft 0 kts 354°
2026-04-21 17:25 55.54002 13.36880 241 ft 3 kts 356°
2026-04-21 17:26 55.53981 13.36881 240 ft 3 kts
2026-04-21 17:26 55.53962 13.36876 238 ft 3 kts 21°
2026-04-21 17:26 55.53946 13.36860 236 ft 3 kts 60°
2026-04-21 17:26 55.53942 13.36843 242 ft 1 kts 83°
2026-04-21 17:27 55.53942 13.36838 242 ft 0 kts 83°
2026-04-21 17:30 55.53943 13.36847 242 ft 2 kts 83°
2026-04-21 17:30 55.53948 13.36927 236 ft 10 kts 83°
2026-04-21 17:31 55.53960 13.37117 236 ft 13 kts 84°
2026-04-21 17:31 55.54007 13.37244 237 ft 14 kts
2026-04-21 17:31 55.54113 13.37228 236 ft 16 kts 353°
2026-04-21 17:31 55.54234 13.37202 236 ft 19 kts 354°
2026-04-21 17:32 55.54322 13.37184 236 ft 20 kts 353°
2026-04-21 17:32 55.54448 13.37159 237 ft 14 kts 352°
2026-04-21 17:32 55.54529 13.37142 237 ft 13 kts 354°
2026-04-21 17:32 55.54623 13.37141 237 ft 15 kts 11°
2026-04-21 17:33 55.54725 13.37209 237 ft 17 kts 22°
2026-04-21 17:33 55.54788 13.37359 241 ft 17 kts 118°
2026-04-21 17:33 55.54709 13.37399 244 ft 0 kts 174°
2026-04-21 17:33 55.54556 13.37430 236 ft 63 kts 173°
2026-04-21 17:34 55.53835 13.37576 237 ft 143 kts 173°
2026-04-21 17:34 55.52765 13.37814 747 ft 156 kts 176°
2026-04-21 17:34 55.51678 13.38039 1512 ft 159 kts 175°
2026-04-21 17:34 55.50642 13.38792 1905 ft 173 kts 135°
2026-04-21 17:35 55.50078 13.40765 2169 ft 194 kts 95°
2026-04-21 17:35 55.50358 13.43144 2472 ft 209 kts 54°
2026-04-21 17:35 55.51490 13.44722 3121 ft 211 kts 22°
2026-04-21 17:35 55.52783 13.45935 4025 ft 211 kts 33°
2026-04-21 17:36 55.53939 13.47479 4939 ft 211 kts 38°
2026-04-21 17:36 55.55073 13.49123 5869 ft 211 kts 39°
2026-04-21 17:36 55.56211 13.50764 6744 ft 212 kts 39°
2026-04-21 17:36 55.57372 13.52396 7540 ft 214 kts 39°
2026-04-21 17:37 55.58555 13.54023 8338 ft 217 kts 38°
2026-04-21 17:37 55.59860 13.55500 8924 ft 234 kts 32°
2026-04-21 17:37 55.61336 13.57043 9313 ft 259 kts 32°
2026-04-21 17:37 55.62867 13.58823 9851 ft 267 kts 42°
2026-04-21 17:38 55.64087 13.61334 10584 ft 276 kts 55°
2026-04-21 17:38 55.65235 13.64234 10867 ft 299 kts 55°
2026-04-21 17:38 55.66466 13.67380 11201 ft 318 kts 56°
2026-04-21 17:38 55.67735 13.70643 11867 ft 324 kts 56°
2026-04-21 17:39 55.69022 13.73962 12641 ft 327 kts 56°
2026-04-21 17:39 55.70317 13.77304 13412 ft 330 kts 56°
2026-04-21 17:39 55.71608 13.80634 14154 ft 333 kts 56°
2026-04-21 17:39 55.72930 13.84037 14825 ft 336 kts 56°
2026-04-21 17:40 55.74260 13.87470 15495 ft 339 kts 56°
2026-04-21 17:40 55.75597 13.90928 16178 ft 341 kts 56°
2026-04-21 17:40 55.76930 13.94436 16851 ft 344 kts 59°
2026-04-21 17:40 55.78020 13.98262 17517 ft 347 kts 64°
2026-04-21 17:41 55.79060 14.02145 18203 ft 350 kts 64°
2026-04-21 17:41 55.80099 14.06073 18846 ft 352 kts 64°
2026-04-21 17:41 55.81140 14.10031 19441 ft 354 kts 64°
2026-04-21 17:41 55.82172 14.13962 20073 ft 356 kts 64°
2026-04-21 17:42 55.83224 14.17964 20719 ft 357 kts 64°
2026-04-21 17:42 55.84281 14.21974 21367 ft 359 kts 64°
2026-04-21 17:42 55.85339 14.26003 21998 ft 360 kts 63°
2026-04-21 17:42 55.86402 14.30053 22593 ft 361 kts 63°
2026-04-21 17:43 55.87468 14.34113 23158 ft 363 kts 63°
2026-04-21 17:43 55.88528 14.38147 23718 ft 364 kts 63°
2026-04-21 17:43 55.89605 14.42260 24207 ft 366 kts 63°
2026-04-21 17:43 55.90683 14.46392 24650 ft 368 kts 63°
2026-04-21 17:44 55.91766 14.50547 25090 ft 370 kts 63°
2026-04-21 17:44 55.92851 14.54725 25521 ft 372 kts 63°
2026-04-21 17:44 55.93942 14.58935 25955 ft 375 kts 63°
2026-04-21 17:44 55.95037 14.63167 26387 ft 377 kts 63°
2026-04-21 17:45 55.96137 14.67430 26822 ft 379 kts 63°
2026-04-21 17:45 55.97245 14.71717 27219 ft 382 kts 63°
2026-04-21 17:45 55.98362 14.76036 27626 ft 384 kts 63°
2026-04-21 17:45 55.99482 14.80385 28033 ft 387 kts 63°
2026-04-21 17:46 56.00604 14.84764 28434 ft 389 kts 63°
2026-04-21 17:46 56.01716 14.89117 28820 ft 391 kts 63°
2026-04-21 17:46 56.02849 14.93560 29273 ft 392 kts 63°
2026-04-21 17:46 56.03983 14.98006 29680 ft 394 kts 63°
2026-04-21 17:47 56.05119 15.02477 30062 ft 396 kts 63°
2026-04-21 17:47 56.06259 15.06974 30416 ft 398 kts 63°
2026-04-21 17:47 56.07405 15.11493 30709 ft 400 kts 63°
2026-04-21 17:47 56.08558 15.16044 30987 ft 402 kts 63°
2026-04-21 17:48 56.09713 15.20611 31360 ft 402 kts 63°
2026-04-21 17:48 56.10864 15.25179 31761 ft 402 kts 63°
2026-04-21 17:48 56.12010 15.29739 32146 ft 402 kts 63°
2026-04-21 17:48 56.13160 15.34313 32535 ft 401 kts 63°
2026-04-21 17:49 56.14290 15.38819 32913 ft 401 kts 63°
2026-04-21 17:49 56.15446 15.43447 33270 ft 402 kts 63°
2026-04-21 17:49 56.16589 15.48038 33629 ft 403 kts 63°
2026-04-21 17:49 56.17718 15.52578 34008 ft 403 kts 63°
2026-04-21 17:50 56.18858 15.57165 34393 ft 403 kts 63°
2026-04-21 17:50 56.19995 15.61761 34718 ft 403 kts 63°
2026-04-21 17:50 56.21132 15.66373 35000 ft 405 kts 63°
2026-04-21 17:50 56.22273 15.71003 35280 ft 406 kts 63°
2026-04-21 17:51 56.23418 15.75652 35545 ft 407 kts 64°
2026-04-21 17:51 56.24566 15.80318 35807 ft 409 kts 64°
2026-04-21 17:51 56.25716 15.85003 36062 ft 410 kts 64°
2026-04-21 17:51 56.26866 15.89702 36323 ft 411 kts 64°
2026-04-21 17:52 56.28018 15.94419 36567 ft 412 kts 64°
2026-04-21 17:52 56.29170 15.99148 36799 ft 413 kts 64°
2026-04-21 17:52 56.30323 16.03895 37032 ft 414 kts 64°
2026-04-21 17:52 56.31476 16.08662 37245 ft 416 kts 64°
2026-04-21 17:53 56.33785 16.18235 37307 ft 416 kts 64°
2026-04-21 17:53 56.36076 16.27750 37304 ft 416 kts 64°
2026-04-21 17:54 56.38376 16.37329 37307 ft 416 kts 64°
2026-04-21 17:54 56.40669 16.46910 37306 ft 416 kts 64°
2026-04-21 17:55 56.42948 16.56517 37304 ft 416 kts 64°
2026-04-21 17:55 56.45218 16.66141 37298 ft 416 kts 65°
2026-04-21 17:56 56.47478 16.75774 37297 ft 416 kts 65°
2026-04-21 17:56 56.49738 16.85421 37298 ft 416 kts 65°
2026-04-21 17:57 56.51999 16.95085 37285 ft 416 kts 65°
2026-04-21 17:57 56.54231 17.04693 37284 ft 417 kts 65°
2026-04-21 17:58 56.56476 17.14395 37284 ft 417 kts 65°
2026-04-21 17:58 56.58710 17.24124 37285 ft 418 kts 65°